Tracking 19846 objects as of 18-Sep-2019
HD Live streaming from Space Station
objects crossing your sky now

COSMOS 1341

Track COSMOS 1341 now!
COSMOS 1341 is classified as:


NORAD ID: 13080
Int'l Code: 1982-016A
Perigee: 2,728.7 km
Apogee: 37,689.9 km
Inclination: 67.5 °
Period: 718.8 minutes
Semi major axis: 26580 km
RCS: 8.091 m2 (large)
Launch date: March 3, 1982
Source: Commonwealth of Independent States (former USSR) (CIS)
Launch site: PLESETSK MISSILE AND SPACE COMPLEX (PKMTR)
aabbcc
Your satellite tracking list
Your tracking list is empty




NASA's NSSDC Master Catalog

Two Line Element Set (TLE):
1 13080U 82016A   19258.36398094  .00000814  00000-0  00000+0 0  9998
2 13080  67.4521 166.5661 6576524  21.6835 356.6236  2.00337647185322
Source of the keplerian elements: AFSPC